Regional Weather Roundup
Issued by NWS Kansas City/Pleasant Hill, MO

Home | Current Version | Previous Version | Graphics & Text | Print | Product List | Glossary Off
Versions: 1 2 3 4 5 6 7 8 9 10 11 12 13 14 15 16 17 18 19 20 21 22 23 24 25 26 27

000
ASUS43 KEAX 050210
RWREAX

WEATHER ROUNDUP FOR EASTERN KANSAS AND NORTHWEST MISSOURI
NATIONAL WEATHER SERVICE KANSAS CITY/PLEASANT HILL MO
800 PM CST SUN DEC 04 2016

KSZ040-057-103>105-MOZ028-029-037-043-050300-
...KANSAS CITY METROPOLITAN AREA...

CITY           SKY/WX    TMP DP  RH WIND       PRES   REMARKS
K.C. INTL      CLEAR     32  29  88 SW7       29.99S FOG     WCI  26
K.C. DOWNTOWN  CLEAR     38  35  89 W3        30.01R
LEES SUMMIT    CLEAR     37  35  92 SW8       30.00S WCI  31
OLATHE - IXD   CLEAR     33  32  96 SW5       30.01S WCI  29
OLATHE - OJC   CLEAR     34  33  96 SW3       30.00S
LAWRENCE       CLEAR     30  30 100 CALM      30.01S FOG

$$

MOZ001>008-011>017-020>025-030>033-038>040-044>046-053-054-050300-
...NORTHERN AND CENTRAL MISSOURI...

CITY           SKY/WX    TMP DP  RH WIND       PRES   REMARKS
ST. JOSEPH     CLEAR     33  32  96 S7        29.99S WCI  27
MOSBY          CLEAR     34  32  93 CALM      30.01R
WARRENSBURG    CLEAR     36  34  93 S5        30.01S WCI  32
WHITEMAN AFB   CLEAR     34  34 100 S7        30.00S WCI  28
CLINTON        CLEAR     37  36  93 S3        30.03S
SEDALIA        CLEAR     38  34  85 SW6       30.02S WCI  33
WARSAW         NOT AVBL
CHILLICOTHE      N/A     32  31  96 CALM      30.00S
KIRKSVILLE     MOCLDY    36  34  92 SW5       29.98R WCI  32

$$

MOZ041-047>049-056>058-063>065-088>090-097-050300-
...EASTERN AND SOUTHERN MISSOURI...

CITY           SKY/WX    TMP DP  RH WIND       PRES   REMARKS
ST. LOUIS INTL CLOUDY    40  34  79 W10       30.02R WCI  33
SPIRIT OF STL  CLOUDY    40  36  86 W9        30.02R WCI  34
COLUMBIA       CLEAR     36  34  92 W6        30.01S WCI  31
JEFFERSON CITY CLEAR     34  34 100 CALM      30.02S
ROLLA          CLEAR     36  35  96 W7        30.00S WCI  30
OSAGE BEACH    CLEAR     34  33  96 CALM      30.03S
SPRINGFIELD    CLEAR     36  33  89 NW5       30.01S WCI  32
BRANSON        MOCLDY    39  37  93 CALM      30.03S
JOPLIN         CLEAR     34  34 100 CALM      30.03F
WEST PLAINS    PTCLDY    37  35  92 W3        30.03R

$$

IAZ060-094-KSZ022-034>040-054-083-096-NEZ052-066-093-050300-
...KANSAS...SOUTHEAST NEBRASKA AND IOWA...

CITY           SKY/WX    TMP DP  RH WIND       PRES   REMARKS
TOPEKA         CLEAR     34  30  85 CALM      30.00S
MANHATTAN      CLEAR     29  29 100 CALM      29.98S FOG
EMPORIA        CLEAR     33  31  92 S8        29.99S WCI  26
CHANUTE        CLEAR     33  31  92 CALM      30.02F
WICHITA        CLEAR     36  34  92 S8        30.00S WCI  30
OMAHA          CLEAR     32  27  81 SE7       29.91F WCI  26
LINCOLN        CLEAR     34  30  85 CALM      29.92F
FALLS CITY     CLEAR     36  33  89 S6        29.95F WCI  31
LAMONI         PTCLDY    34  33  96 SW7       29.94F WCI  28
DES MOINES     CLEAR     34  31  88 S7        29.92R WCI  28

$$





USA.gov is the U.S. government's official web portal to all federal, state and local government web resources and services.